Showing default

COSMOS 2425 (GLONASS), 29670

Orbit data source: Space-Track

COSMOS 2425 (GLONASS), 29670 is a Commonwealth of Independent States-origin payload satellite in MEO that was launched on Mon, 25 Dec 2006 UTC via a PROTON-K/DM-2 launch vehicle from the Tyuratam Missile And Space Complex (TTMTR). Payload-class satellites include a variety of spacecraft equipped with specific instruments for various scientific and technological missions. These include communications satellites like Starlink; space stations such as the ISS; scientific satellites like the Hubble; Earth observation satellites from companies like Planet Labs, Umbra, and HawkEye 360; GPS; miniature CubeSats for education and research; and military/defense satellites.

Loading next visibility...
Identifier
29670, 2006-062A
Orbit
MEO
Last TLE update
2 days ago
Origin
Manufacturer
Resehetnev ISS
Mission
Non-operational Defense Navigation
Bus & Motor
URAGAN, Unknown motor
Mass
1,450 kg wet, ~1,200 kg dry
Launch date (UTC)
2006-12-25 (19 years ago)
Launch vehicle
PROTON-K/DM-2
Launch site
Tyuratam Missile And Space Complex (TTMTR)
Object type
Payload
Rocket body
Debris
Shape & HBR
Cyl + 1 Arm + 2 Pan, 7.8 m
Radar Cross Section
8.145 m², Large (>1 m²)

Expand to show TLE details & history

TLE from 2 days ago
0 COSMOS 2425 (GLONASS)
1 29670U 06062A   25181.59186890  .00000052  00000-0  00000+0 0  9997
2 29670  64.6912 205.9842 0022652 350.0656  12.0137  2.13116329144085
Epoch: 2025-06-30T14:12Z
TLE epoch observation values (Epoch: 2025-06-30T14:12:17.472Z)
Latitude
1.88597°
Longitude
74.90899°
Altitude
19,072.562 km
Speed
3.962 km/s
True Right ascension
13h 47m 31s
True Declination
1° 52' 58"
Sunlit
Object was in daylight at epoch
Visualization orbit readout
Latitude
-47.99229°
Longitude
42.29528°
Altitude
19,105.482 km
Speed
3.958 km/s
Apparent Right ascension
12h 35m 49s
Apparent Declination
-58° 16' 36"
Sunlit
Object is in daylight
Visualization observer readout
Local Sidereal Time
08:27:40
Azimuth
150.188° SSE
Elevation
-20.899°
Doppler factor
1
Orbital elements
Apogee altitude
19,186.147 km
Perigee altitude
19,070.592 km
Semi-major axis
25,506.507 km
Eccentricity
0.00227
Inclination
64.6912°
RAAN
205.9842°
Arg. of periapsis
350.0656°
True anomaly
Unknown
Mean anomaly
12.0137°
Eccentric anomaly
Unknown
Mean motion
0.5328 °/min
Orbital period
675.67 mins
BSTAR
0
Loading maneuver chart data...
Loading SW <> Apogee altitude chart data...
Loading historical data...
Loading historical data...
Loading historical data...
Loading historical data...
Loading historical data...
Loading historical data...
Loading historical data...

COSMOS 2425 (GLONASS) Visibility forecast

Observer location: undefined°, undefined°

Span
Click to sort rows by Start time (UTC) header in descending order
Start Az.
Max El. time (UTC)
Max El. Az.
Max El.
End time (UTC)
End Az.
193 mins2025-07-02 22:19:35.186Z118.242° SE2025-07-02 23:57:35.186Z67.182° ENE30.994°2025-07-03 01:32:35.186Z26.15° NE
263 mins2025-07-03 11:44:35.186Z322.372° NNW2025-07-03 13:58:35.186Z272.406° WNW42.607°2025-07-03 16:07:35.186Z201.892° SSW
|